,,,PA_Meas_PMT16A,,PR_Meas_QMR101_102,,RH_Meas_QMH101,,SR_Meas_QMS101,,TA_Meas_QMH101,,GenWind,,GenWind,
date,time,status,PA,status,PR,status,RH,status,SR,status,TA,status,DirAvg,status,SpdAvg,
2010-03-27, 00:00:05,VALID,1010.8,VALID,0,VALID,95.1694,VALID,0,VALID,23.7525,VALID,70,VALID,0.665234,
2010-03-27, 00:01:05,VALID,1010.8,VALID,0,VALID,95.177,VALID,0.105969,VALID,23.7312,VALID,352,VALID,0.666406,
2010-03-27, 00:02:05,VALID,1010.77,VALID,0,VALID,95.1999,VALID,0,VALID,23.7312,VALID,356,VALID,0.567969,
2010-03-27, 00:03:05,VALID,1010.76,VALID,0,VALID,95.2228,VALID,0,VALID,23.7117,VALID,11,VALID,0.583984,
2010-03-27, 00:04:05,VALID,1010.76,VALID,0,VALID,95.2304,VALID,0,VALID,23.7135,VALID,9,VALID,0.0046875,
2010-03-27, 00:05:05,VALID,1010.77,VALID,0,VALID,95.2304,VALID,0,VALID,23.694,VALID,332,VALID,0.0625,
2010-03-27, 00:06:05,VALID,1010.76,VALID,0,VALID,95.2228,VALID,0,VALID,23.694,VALID,335,VALID,0.133594,
2010-03-27, 00:07:05,VALID,1010.76,VALID,0,VALID,95.2533,VALID,0,VALID,23.694,VALID,325,VALID,0.364844,
2010-03-27, 00:08:05,VALID,1010.74,VALID,0,VALID,95.2533,VALID,0,VALID,23.694,VALID,313,VALID,0.344141,
2010-03-27, 00:09:05,VALID,1010.72,VALID,0,VALID,95.2457,VALID,0,VALID,23.6745,VALID,303,VALID,0.548437,
2010-03-27, 00:10:05,VALID,1010.64,VALID,0,VALID,95.2533,VALID,0,VALID,23.655,VALID,308,VALID,0,
2010-03-27, 00:11:05,VALID,1010.6,VALID,0,VALID,95.2457,VALID,0,VALID,23.6338,VALID,308,VALID,0.247656,
2010-03-27, 00:12:05,VALID,1010.56,VALID,0,VALID,95.2533,VALID,0,VALID,23.6161,VALID,308,VALID,0.130078,
2010-03-27, 00:13:05,VALID,1010.54,VALID,0,VALID,95.2228,VALID,0,VALID,23.6161,VALID,323,VALID,0.432813,
2010-03-27, 00:14:05,VALID,1010.48,VALID,0,VALID,95.2228,VALID,0,VALID,23.6161,VALID,324,VALID,0,
2010-03-27, 00:15:05,VALID,1010.45,VALID,0,VALID,95.2152,VALID,0.105969,VALID,23.5948,VALID,324,VALID,0,
2010-03-27, 00:16:05,VALID,1010.43,VALID,0,VALID,95.238,VALID,0,VALID,23.5966,VALID,216,VALID,0.411328,
2010-03-27, 00:17:05,VALID,1010.4,VALID,0,VALID,95.2304,VALID,0.105969,VALID,23.5948,VALID,216,VALID,0.419531,
2010-03-27, 00:18:05,VALID,1010.42,VALID,0,VALID,95.2533,VALID,0,VALID,23.5966,VALID,216,VALID,0.167578,
2010-03-27, 00:19:05,VALID,1010.42,VALID,0,VALID,95.2533,VALID,0.105969,VALID,23.6143,VALID,216,VALID,0.217969,
2010-03-27, 00:20:05,VALID,1010.43,VALID,0,VALID,95.2609,VALID,0.105969,VALID,23.6338,VALID,220,VALID,0.200781,
2010-03-27, 00:21:05,VALID,1010.45,VALID,0,VALID,95.2609,VALID,0.105969,VALID,23.6338,VALID,283,VALID,0.341016,
2010-03-27, 00:22:05,VALID,1010.41,VALID,0,VALID,95.2609,VALID,0,VALID,23.6338,VALID,354,VALID,0.689844,
2010-03-27, 00:23:05,VALID,1010.4,VALID,0,VALID,95.2838,VALID,0.105969,VALID,23.6143,VALID,8,VALID,0.803125,
2010-03-27, 00:24:05,VALID,1010.4,VALID,0,VALID,95.2762,VALID,0.105969,VALID,23.5948,VALID,10,VALID,0.478516,
2010-03-27, 00:25:05,VALID,1010.37,VALID,0,VALID,95.2914,VALID,0.105969,VALID,23.5558,VALID,332,VALID,0.354688,
2010-03-27, 00:26:05,VALID,1010.36,VALID,0,VALID,95.2914,VALID,0,VALID,23.5558,VALID,336,VALID,0.00195313,
2010-03-27, 00:27:05,VALID,1010.34,VALID,0,VALID,95.3067,VALID,0.105969,VALID,23.5576,VALID,336,VALID,0,
2010-03-27, 00:28:05,VALID,1010.33,VALID,0,VALID,95.3067,VALID,0.105969,VALID,23.5169,VALID,336,VALID,0,
2010-03-27, 00:29:05,VALID,1010.32,VALID,0,VALID,95.3219,VALID,0.105969,VALID,23.4974,VALID,336,VALID,0,
2010-03-27, 00:30:05,VALID,1010.28,VALID,0,VALID,95.299,VALID,0,VALID,23.4584,VALID,336,VALID,0,
2010-03-27, 00:31:05,VALID,1010.26,VALID,0,VALID,95.3219,VALID,0.105969,VALID,23.4584,VALID,34,VALID,0.567969,
2010-03-27, 00:32:05,VALID,1010.28,VALID,0,VALID,95.3219,VALID,0.105969,VALID,23.4584,VALID,69,VALID,1.01641,
2010-03-27, 00:33:05,VALID,1010.27,VALID,0,VALID,95.3219,VALID,0,VALID,23.4602,VALID,79,VALID,1.03906,
2010-03-27, 00:34:05,VALID,1010.28,VALID,0,VALID,95.3448,VALID,0,VALID,23.4389,VALID,88,VALID,0.939453,
2010-03-27, 00:35:05,VALID,1010.29,VALID,0,VALID,95.3448,VALID,0.105969,VALID,23.4194,VALID,90,VALID,0.828516,
2010-03-27, 00:36:05,VALID,1010.28,VALID,0,VALID,95.36,VALID,0.105969,VALID,23.4,VALID,80,VALID,0.605469,
2010-03-27, 00:37:05,VALID,1010.24,VALID,0,VALID,95.3524,VALID,0,VALID,23.4212,VALID,70,VALID,0.300781,
2010-03-27, 00:38:05,VALID,1010.26,VALID,0,VALID,95.3524,VALID,0,VALID,23.4212,VALID,73,VALID,0.451562,
2010-03-27, 00:39:05,VALID,1010.26,VALID,0,VALID,95.36,VALID,0,VALID,23.4194,VALID,89,VALID,0.826563,
2010-03-27, 00:40:05,VALID,1010.26,VALID,0,VALID,95.3677,VALID,0.105969,VALID,23.4194,VALID,77,VALID,0.227344,
2010-03-27, 00:41:05,VALID,1010.28,VALID,0,VALID,95.3905,VALID,0.105969,VALID,23.4407,VALID,30,VALID,0.663672,
2010-03-27, 00:42:05,VALID,1010.27,VALID,0,VALID,95.3982,VALID,0,VALID,23.4212,VALID,358,VALID,0.333984,
2010-03-27, 00:43:05,VALID,1010.23,VALID,0,VALID,95.3905,VALID,0.105969,VALID,23.4,VALID,358,VALID,0.125391,
2010-03-27, 00:44:05,VALID,1010.21,VALID,0,VALID,95.4058,VALID,0.105969,VALID,23.3805,VALID,358,VALID,0.00195313,
2010-03-27, 00:45:05,VALID,1010.19,VALID,0,VALID,95.4134,VALID,0,VALID,23.3823,VALID,358,VALID,0,
2010-03-27, 00:46:05,VALID,1010.2,VALID,0,VALID,95.4287,VALID,0,VALID,23.3628,VALID,358,VALID,0.0835937,
2010-03-27, 00:47:05,VALID,1010.21,VALID,0,VALID,95.4363,VALID,0.105969,VALID,23.3823,VALID,356,VALID,0.180469,
2010-03-27, 00:48:05,VALID,1010.19,VALID,0,VALID,95.4821,VALID,0,VALID,23.3805,VALID,356,VALID,0.0601562,
2010-03-27, 00:49:05,VALID,1010.19,VALID,0,VALID,95.4668,VALID,0.105969,VALID,23.361,VALID,356,VALID,0.00625,
2010-03-27, 00:50:05,VALID,1010.18,VALID,0,VALID,95.4973,VALID,0,VALID,23.3823,VALID,356,VALID,0.226953,
2010-03-27, 00:51:05,VALID,1010.19,VALID,0,VALID,95.4821,VALID,0,VALID,23.3415,VALID,356,VALID,0,
2010-03-27, 00:52:05,VALID,1010.19,VALID,0,VALID,95.4821,VALID,0,VALID,23.3415,VALID,356,VALID,0,
2010-03-27, 00:53:05,VALID,1010.19,VALID,0,VALID,95.4821,VALID,0,VALID,23.3628,VALID,27,VALID,0,
2010-03-27, 00:54:05,VALID,1010.16,VALID,0,VALID,95.4821,VALID,0.105969,VALID,23.322,VALID,27,VALID,0,
2010-03-27, 00:55:05,VALID,1010.14,VALID,0,VALID,95.4821,VALID,0.105969,VALID,23.3415,VALID,27,VALID,0,
2010-03-27, 00:56:04,VALID,1010.11,VALID,0,VALID,95.5049,VALID,0.105969,VALID,23.3203,VALID,72,VALID,0.234766,
2010-03-27, 00:57:04,VALID,1010.1,VALID,0,VALID,95.5049,VALID,0,VALID,23.3415,VALID,72,VALID,0.0898438,
2010-03-27, 00:58:04,VALID,1010.05,VALID,0,VALID,95.4821,VALID,0.105969,VALID,23.322,VALID,72,VALID,0,
2010-03-27, 00:59:04,VALID,1010.02,VALID,0,VALID,95.4973,VALID,0.105969,VALID,23.322,VALID,75,VALID,0.413672,
2010-03-27, 01:00:04,VALID,1009.99,VALID,0,VALID,95.4897,VALID,0.105969,VALID,23.322,VALID,72,VALID,0.61875,
2010-03-27, 01:01:04,VALID,1009.97,VALID,0,VALID,95.5126,VALID,0.105969,VALID,23.322,VALID,61,VALID,0.503516,
2010-03-27, 01:02:04,VALID,1009.94,VALID,0,VALID,95.4973,VALID,0.105969,VALID,23.3026,VALID,40,VALID,0.606641,
2010-03-27, 01:03:04,VALID,1009.93,VALID,0,VALID,95.4744,VALID,0.105969,VALID,23.2831,VALID,68,VALID,0.307422,
2010-03-27, 01:04:04,VALID,1009.9,VALID,0,VALID,95.4516,VALID,0.105969,VALID,23.2831,VALID,68,VALID,0.171094,
2010-03-27, 01:05:04,VALID,1009.89,VALID,0,VALID,95.4516,VALID,0.105969,VALID,23.2831,VALID,68,VALID,0.107813,
2010-03-27, 01:06:04,VALID,1009.88,VALID,0,VALID,95.4363,VALID,0.105969,VALID,23.2618,VALID,68,VALID,0.000390625,
2010-03-27, 01:07:04,VALID,1009.91,VALID,0,VALID,95.4287,VALID,0.105969,VALID,23.2636,VALID,48,VALID,0.16875,
2010-03-27, 01:08:04,VALID,1009.88,VALID,0,VALID,95.4516,VALID,0.105969,VALID,23.2831,VALID,33,VALID,0.267578,
2010-03-27, 01:09:04,VALID,1009.87,VALID,0,VALID,95.4897,VALID,0,VALID,23.2636,VALID,33,VALID,0,
2010-03-27, 01:10:04,VALID,1009.82,VALID,0,VALID,95.4973,VALID,0.105969,VALID,23.2441,VALID,33,VALID,0,
2010-03-27, 01:11:04,VALID,1009.78,VALID,0,VALID,95.5049,VALID,0.105969,VALID,23.2441,VALID,33,VALID,0,
2010-03-27, 01:12:04,VALID,1009.76,VALID,0,VALID,95.5202,VALID,0.105969,VALID,23.2246,VALID,33,VALID,0,
2010-03-27, 01:13:04,VALID,1009.72,VALID,0,VALID,95.5202,VALID,0.105969,VALID,23.2051,VALID,33,VALID,0.0046875,
2010-03-27, 01:14:04,VALID,1009.75,VALID,0,VALID,95.5431,VALID,0.105969,VALID,23.2069,VALID,33,VALID,0.167969,
2010-03-27, 01:15:04,VALID,1009.72,VALID,0,VALID,95.5583,VALID,0,VALID,23.1874,VALID,33,VALID,0,
2010-03-27, 01:16:04,VALID,1009.69,VALID,0,VALID,95.5964,VALID,0,VALID,23.1874,VALID,100,VALID,0.373437,
2010-03-27, 01:17:04,VALID,1009.64,VALID,0,VALID,95.5964,VALID,0,VALID,23.1874,VALID,100,VALID,0.504687,
2010-03-27, 01:18:04,VALID,1009.62,VALID,0,VALID,95.6117,VALID,0,VALID,23.1874,VALID,99,VALID,0.894141,
2010-03-27, 01:19:04,VALID,1009.58,VALID,0,VALID,95.6193,VALID,0,VALID,23.1874,VALID,118,VALID,0.745313,
2010-03-27, 01:20:04,VALID,1009.56,VALID,0,VALID,95.6422,VALID,0,VALID,23.1857,VALID,101,VALID,1.18711,
2010-03-27, 01:21:04,VALID,1009.6,VALID,0,VALID,95.6117,VALID,0,VALID,23.2264,VALID,85,VALID,0.934375,
2010-03-27, 01:22:04,VALID,1009.6,VALID,0,VALID,95.6041,VALID,0,VALID,23.2459,VALID,67,VALID,0.884766,
2010-03-27, 01:23:04,VALID,1009.6,VALID,0,VALID,95.6041,VALID,0,VALID,23.2654,VALID,68,VALID,0.300391,
2010-03-27, 01:24:04,VALID,1009.57,VALID,0,VALID,95.5659,VALID,0,VALID,23.2459,VALID,58,VALID,0.566016,
2010-03-27, 01:25:04,VALID,1009.55,VALID,0,VALID,95.5354,VALID,0,VALID,23.2069,VALID,51,VALID,0.995313,
2010-03-27, 01:26:04,VALID,1009.56,VALID,0,VALID,95.5354,VALID,0,VALID,23.2069,VALID,84,VALID,0.39375,
2010-03-27, 01:27:04,VALID,1009.56,VALID,0,VALID,95.5431,VALID,0,VALID,23.1874,VALID,83,VALID,0.187891,
2010-03-27, 01:28:04,VALID,1009.52,VALID,0,VALID,95.5126,VALID,0,VALID,23.1874,VALID,10,VALID,0.428516,
2010-03-27, 01:29:04,VALID,1009.49,VALID,0,VALID,95.5126,VALID,0,VALID,23.1485,VALID,6,VALID,0.0273438,
2010-03-27, 01:30:04,VALID,1009.48,VALID,0,VALID,95.5354,VALID,0.105969,VALID,23.1467,VALID,30,VALID,0.145313,
2010-03-27, 01:31:04,VALID,1009.45,VALID,0,VALID,95.5507,VALID,0.105969,VALID,23.1467,VALID,30,VALID,0,
2010-03-27, 01:32:04,VALID,1009.42,VALID,0,VALID,95.5583,VALID,0.105969,VALID,23.1467,VALID,30,VALID,0,
2010-03-27, 01:33:04,VALID,1009.43,VALID,0,VALID,95.5964,VALID,0.105969,VALID,23.1272,VALID,30,VALID,0,
2010-03-27, 01:34:04,VALID,1009.42,VALID,0,VALID,95.5812,VALID,0.105969,VALID,23.1272,VALID,30,VALID,0,
2010-03-27, 01:35:04,VALID,1009.4,VALID,0,VALID,95.5736,VALID,0.105969,VALID,23.145,VALID,30,VALID,0,
2010-03-27, 01:36:04,VALID,1009.42,VALID,0,VALID,95.5964,VALID,0.105969,VALID,23.1467,VALID,30,VALID,0,
2010-03-27, 01:37:04,VALID,1009.42,VALID,0,VALID,95.5964,VALID,0.105969,VALID,23.1467,VALID,30,VALID,0,
2010-03-27, 01:38:04,VALID,1009.42,VALID,0,VALID,95.6117,VALID,0.105969,VALID,23.1467,VALID,30,VALID,0,
2010-03-27, 01:39:04,VALID,1009.41,VALID,0,VALID,95.6498,VALID,0.105969,VALID,23.1467,VALID,30,VALID,0,
2010-03-27, 01:40:04,VALID,1009.4,VALID,0,VALID,95.6498,VALID,0.105969,VALID,23.1485,VALID,30,VALID,0.236328,
2010-03-27, 01:41:04,VALID,1009.4,VALID,0,VALID,95.6651,VALID,0.105969,VALID,23.1272,VALID,30,VALID,0.330078,
2010-03-27, 01:42:04,VALID,1009.36,VALID,0,VALID,95.6727,VALID,0.105969,VALID,23.1272,VALID,29,VALID,0.419922,
2010-03-27, 01:43:04,VALID,1009.39,VALID,0,VALID,95.6727,VALID,0,VALID,23.1077,VALID,28,VALID,0.254687,
2010-03-27, 01:44:04,VALID,1009.36,VALID,0,VALID,95.688,VALID,0.105969,VALID,23.0883,VALID,28,VALID,0.229687,
2010-03-27, 01:45:04,VALID,1009.36,VALID,0,VALID,95.688,VALID,0,VALID,23.0705,VALID,28,VALID,0,
2010-03-27, 01:46:04,VALID,1009.37,VALID,0,VALID,95.6956,VALID,0,VALID,23.0511,VALID,28,VALID,0,
2010-03-27, 01:47:04,VALID,1009.38,VALID,0,VALID,95.7185,VALID,0,VALID,23.0316,VALID,28,VALID,0,
2010-03-27, 01:48:04,VALID,1009.35,VALID,0,VALID,95.7032,VALID,0,VALID,23.0316,VALID,28,VALID,0,
2010-03-27, 01:49:04,VALID,1009.36,VALID,0,VALID,95.7261,VALID,0,VALID,23.0316,VALID,28,VALID,0,
2010-03-27, 01:50:04,VALID,1009.36,VALID,0,VALID,95.7337,VALID,0,VALID,23.0511,VALID,28,VALID,0,
2010-03-27, 01:51:04,VALID,1009.33,VALID,0,VALID,95.7566,VALID,0,VALID,23.0316,VALID,28,VALID,0,
2010-03-27, 01:52:04,VALID,1009.33,VALID,0,VALID,95.7795,VALID,0,VALID,23.0511,VALID,28,VALID,0,
2010-03-27, 01:53:04,VALID,1009.35,VALID,0,VALID,95.7871,VALID,0,VALID,23.0705,VALID,28,VALID,0.0078125,
2010-03-27, 01:54:04,VALID,1009.31,VALID,0,VALID,95.81,VALID,0,VALID,23.0705,VALID,28,VALID,0.251953,
2010-03-27, 01:55:04,VALID,1009.29,VALID,0,VALID,95.8176,VALID,0,VALID,23.0511,VALID,96,VALID,0.450391,
2010-03-27, 01:56:04,VALID,1009.27,VALID,0,VALID,95.8405,VALID,0,VALID,23.0511,VALID,147,VALID,0.682422,
2010-03-27, 01:57:04,VALID,1009.28,VALID,0,VALID,95.8328,VALID,0,VALID,23.0316,VALID,147,VALID,0.532812,
2010-03-27, 01:58:04,VALID,1009.24,VALID,0,VALID,95.8252,VALID,0,VALID,23.0121,VALID,147,VALID,0.6,
2010-03-27, 01:59:04,VALID,1009.24,VALID,0,VALID,95.8176,VALID,0,VALID,23.0121,VALID,146,VALID,0.708984,
2010-03-27, 02:00:04,VALID,1009.22,VALID,0,VALID,95.8405,VALID,0.105969,VALID,23.0493,VALID,148,VALID,0.74375,
2010-03-27, 02:01:04,VALID,1009.21,VALID,0,VALID,95.8786,VALID,0.105969,VALID,23.0298,VALID,162,VALID,0.694531,
2010-03-27, 02:02:04,VALID,1009.21,VALID,0,VALID,95.8633,VALID,0.105969,VALID,23.0298,VALID,160,VALID,0.204688,
2010-03-27, 02:03:04,VALID,1009.21,VALID,0,VALID,95.871,VALID,0.105969,VALID,23.0493,VALID,160,VALID,0,
2010-03-27, 02:04:04,VALID,1009.21,VALID,0,VALID,95.8557,VALID,0,VALID,23.0493,VALID,160,VALID,0,
2010-03-27, 02:05:04,VALID,1009.18,VALID,0,VALID,95.8939,VALID,0.105969,VALID,23.0476,VALID,160,VALID,0,
2010-03-27, 02:06:04,VALID,1009.15,VALID,0,VALID,95.8862,VALID,0,VALID,23.0705,VALID,160,VALID,0,
2010-03-27, 02:07:04,VALID,1009.14,VALID,0,VALID,95.8862,VALID,0,VALID,23.0493,VALID,160,VALID,0,
2010-03-27, 02:08:04,VALID,1009.14,VALID,0,VALID,95.9015,VALID,0,VALID,23.09,VALID,21,VALID,0.428906,
2010-03-27, 02:09:04,VALID,1009.15,VALID,0,VALID,95.9167,VALID,0,VALID,23.0511,VALID,355,VALID,0.451953,
2010-03-27, 02:10:04,VALID,1009.12,VALID,0,VALID,95.9244,VALID,0,VALID,23.0511,VALID,355,VALID,0.046875,
2010-03-27, 02:11:04,VALID,1009.13,VALID,0,VALID,95.9244,VALID,0,VALID,23.0316,VALID,355,VALID,0,
2010-03-27, 02:12:04,VALID,1009.12,VALID,0,VALID,95.8786,VALID,0,VALID,23.0511,VALID,355,VALID,0,
2010-03-27, 02:13:04,VALID,1009.11,VALID,0,VALID,95.871,VALID,0,VALID,23.0511,VALID,355,VALID,0.139062,
2010-03-27, 02:14:04,VALID,1009.08,VALID,0,VALID,95.8176,VALID,0,VALID,23.0918,VALID,243,VALID,0.629297,
2010-03-27, 02:15:04,VALID,1009.1,VALID,0,VALID,95.81,VALID,0.105969,VALID,23.0688,VALID,237,VALID,0.640625,
2010-03-27, 02:16:04,VALID,1009.1,VALID,0,VALID,95.8405,VALID,0.105969,VALID,23.0493,VALID,237,VALID,0.516016,
2010-03-27, 02:17:04,VALID,1009.1,VALID,0,VALID,95.8405,VALID,0.105969,VALID,23.0493,VALID,237,VALID,0.332422,
2010-03-27, 02:18:04,VALID,1009.11,VALID,0,VALID,95.8481,VALID,0.105969,VALID,23.0493,VALID,237,VALID,0.0367187,
2010-03-27, 02:19:04,VALID,1009.11,VALID,0,VALID,95.8405,VALID,0.105969,VALID,23.0298,VALID,237,VALID,0,
2010-03-27, 02:20:04,VALID,1009.12,VALID,0,VALID,95.8252,VALID,0.105969,VALID,23.0298,VALID,237,VALID,0,
2010-03-27, 02:21:04,VALID,1009.13,VALID,0,VALID,95.8481,VALID,0.105969,VALID,23.0103,VALID,237,VALID,0,
2010-03-27, 02:22:04,VALID,1009.13,VALID,0,VALID,95.8405,VALID,0,VALID,23.0103,VALID,237,VALID,0,
2010-03-27, 02:23:04,VALID,1009.09,VALID,0,VALID,95.81,VALID,0.105969,VALID,23.0103,VALID,237,VALID,0,
2010-03-27, 02:24:04,VALID,1009.13,VALID,0,VALID,95.7566,VALID,0.105969,VALID,22.9891,VALID,237,VALID,0,
2010-03-27, 02:25:04,VALID,1009.12,VALID,0,VALID,95.7108,VALID,0.105969,VALID,23.0086,VALID,237,VALID,0.342187,
2010-03-27, 02:26:04,VALID,1009.15,VALID,0,VALID,95.688,VALID,0.105969,VALID,23.0103,VALID,237,VALID,0.540625,
2010-03-27, 02:27:04,VALID,1009.15,VALID,0,VALID,95.6956,VALID,0.105969,VALID,23.0298,VALID,237,VALID,0.474609,
2010-03-27, 02:28:04,VALID,1009.16,VALID,0,VALID,95.6956,VALID,0.105969,VALID,23.0298,VALID,207,VALID,0.573438,
2010-03-27, 02:29:04,VALID,1009.13,VALID,0,VALID,95.7032,VALID,0.105969,VALID,23.0298,VALID,169,VALID,0.532812,
2010-03-27, 02:30:04,VALID,1009.15,VALID,0,VALID,95.7032,VALID,0.105969,VALID,23.0493,VALID,165,VALID,0.539844,
2010-03-27, 02:31:04,VALID,1009.13,VALID,0,VALID,95.6803,VALID,0.105969,VALID,23.0688,VALID,162,VALID,0.541406,
2010-03-27, 02:32:04,VALID,1009.16,VALID,0,VALID,95.7108,VALID,0.105969,VALID,23.1095,VALID,137,VALID,0.662109,
2010-03-27, 02:33:04,VALID,1009.16,VALID,0,VALID,95.7261,VALID,0,VALID,23.09,VALID,138,VALID,1.02383,
2010-03-27, 02:34:04,VALID,1009.19,VALID,0,VALID,95.749,VALID,0,VALID,23.0688,VALID,123,VALID,0.917188,
2010-03-27, 02:35:04,VALID,1009.17,VALID,0,VALID,95.7566,VALID,0,VALID,23.0493,VALID,109,VALID,0.801562,
2010-03-27, 02:36:04,VALID,1009.18,VALID,0,VALID,95.749,VALID,0,VALID,23.0688,VALID,98,VALID,0.947266,
2010-03-27, 02:37:04,VALID,1009.21,VALID,0,VALID,95.7566,VALID,0,VALID,23.0688,VALID,70,VALID,1.12461,
2010-03-27, 02:38:04,VALID,1009.15,VALID,0,VALID,95.7795,VALID,0.105969,VALID,23.0688,VALID,67,VALID,0.942187,
2010-03-27, 02:39:04,VALID,1009.17,VALID,0,VALID,95.7718,VALID,0,VALID,23.0281,VALID,75,VALID,1.1832,
2010-03-27, 02:40:04,VALID,1009.18,VALID,0,VALID,95.7566,VALID,0.105969,VALID,23.0298,VALID,56,VALID,0.561328,
2010-03-27, 02:41:04,VALID,1009.15,VALID,0,VALID,95.749,VALID,0.105969,VALID,23.0103,VALID,59,VALID,0.574609,
2010-03-27, 02:42:04,VALID,1009.13,VALID,0,VALID,95.7185,VALID,0.105969,VALID,22.9909,VALID,93,VALID,0.458203,
2010-03-27, 02:43:04,VALID,1009.13,VALID,0,VALID,95.7108,VALID,0.105969,VALID,23.0121,VALID,112,VALID,0.703906,
2010-03-27, 02:44:04,VALID,1009.13,VALID,0,VALID,95.7032,VALID,0,VALID,22.9696,VALID,116,VALID,0.714063,
2010-03-27, 02:45:04,VALID,1009.15,VALID,0,VALID,95.7185,VALID,0.105969,VALID,22.9909,VALID,90,VALID,0.782422,
2010-03-27, 02:46:04,VALID,1009.19,VALID,0,VALID,95.7032,VALID,0,VALID,22.9714,VALID,72,VALID,0.879687,
2010-03-27, 02:47:04,VALID,1009.21,VALID,0,VALID,95.7185,VALID,0,VALID,22.9519,VALID,71,VALID,0.596094,
2010-03-27, 02:48:04,VALID,1009.22,VALID,0,VALID,95.688,VALID,0.105969,VALID,22.9519,VALID,103,VALID,0.557031,
2010-03-27, 02:49:04,VALID,1009.22,VALID,0,VALID,95.7261,VALID,0,VALID,22.9519,VALID,103,VALID,0.442969,
2010-03-27, 02:50:04,VALID,1009.22,VALID,0,VALID,95.7032,VALID,0,VALID,22.9519,VALID,103,VALID,0.172266,
2010-03-27, 02:51:04,VALID,1009.22,VALID,0,VALID,95.7337,VALID,0,VALID,22.9731,VALID,157,VALID,0.616797,
2010-03-27, 02:52:04,VALID,1009.23,VALID,0,VALID,95.749,VALID,0,VALID,22.9536,VALID,167,VALID,0.741797,
2010-03-27, 02:53:04,VALID,1009.18,VALID,0,VALID,95.7413,VALID,0.105969,VALID,22.9129,VALID,168,VALID,0.954297,
2010-03-27, 02:54:04,VALID,1009.18,VALID,0,VALID,95.7413,VALID,0.105969,VALID,22.8935,VALID,165,VALID,1.07969,
2010-03-27, 02:55:04,VALID,1009.2,VALID,0,VALID,95.7337,VALID,0.105969,VALID,22.874,VALID,167,VALID,0.970703,
2010-03-27, 02:56:04,VALID,1009.2,VALID,0,VALID,95.7566,VALID,0,VALID,22.8545,VALID,177,VALID,0.596875,
2010-03-27, 02:57:04,VALID,1009.21,VALID,0,VALID,95.749,VALID,0,VALID,22.874,VALID,130,VALID,0.583984,
2010-03-27, 02:58:04,VALID,1009.22,VALID,0,VALID,95.749,VALID,0.105969,VALID,22.8757,VALID,127,VALID,0.245312,
2010-03-27, 02:59:04,VALID,1009.21,VALID,0,VALID,95.7337,VALID,0.105969,VALID,22.874,VALID,127,VALID,0,
2010-03-27, 03:00:04,VALID,1009.19,VALID,0,VALID,95.7413,VALID,0,VALID,22.8545,VALID,128,VALID,0.315234,
2010-03-27, 03:01:04,VALID,1009.19,VALID,0,VALID,95.7108,VALID,0,VALID,22.8952,VALID,131,VALID,0.330078,
2010-03-27, 03:02:04,VALID,1009.21,VALID,0,VALID,95.6574,VALID,0.105969,VALID,22.874,VALID,182,VALID,0.510938,
2010-03-27, 03:03:04,VALID,1009.2,VALID,0,VALID,95.6574,VALID,0.105969,VALID,22.9147,VALID,199,VALID,0.817969,
2010-03-27, 03:04:04,VALID,1009.22,VALID,0,VALID,95.6422,VALID,0.105969,VALID,22.9147,VALID,196,VALID,0.376172,
2010-03-27, 03:05:04,VALID,1009.22,VALID,0,VALID,95.6193,VALID,0,VALID,22.8935,VALID,191,VALID,0.191797,
2010-03-27, 03:06:04,VALID,1009.22,VALID,0,VALID,95.6193,VALID,0.105969,VALID,22.9129,VALID,191,VALID,0,
2010-03-27, 03:07:04,VALID,1009.22,VALID,0,VALID,95.6269,VALID,0.105969,VALID,22.8935,VALID,191,VALID,0,
2010-03-27, 03:08:04,VALID,1009.22,VALID,0,VALID,95.6193,VALID,0,VALID,22.9147,VALID,129,VALID,0.448828,
2010-03-27, 03:09:04,VALID,1009.2,VALID,0,VALID,95.5964,VALID,0.105969,VALID,22.8935,VALID,129,VALID,0.443359,
2010-03-27, 03:10:04,VALID,1009.2,VALID,0,VALID,95.6041,VALID,0.105969,VALID,22.9342,VALID,129,VALID,0.486719,
2010-03-27, 03:11:04,VALID,1009.16,VALID,0,VALID,95.5736,VALID,0.105969,VALID,22.9129,VALID,129,VALID,0.409375,
2010-03-27, 03:12:04,VALID,1009.16,VALID,0,VALID,95.5812,VALID,0.105969,VALID,22.9324,VALID,110,VALID,0.66875,
2010-03-27, 03:13:04,VALID,1009.17,VALID,0,VALID,95.5736,VALID,0.105969,VALID,22.9324,VALID,104,VALID,0.839844,
2010-03-27, 03:14:04,VALID,1009.16,VALID,0,VALID,95.5583,VALID,0,VALID,22.9731,VALID,94,VALID,0.612109,
2010-03-27, 03:15:04,VALID,1009.17,VALID,0,VALID,95.5736,VALID,0.105969,VALID,22.9324,VALID,86,VALID,0.560938,
2010-03-27, 03:16:04,VALID,1009.18,VALID,0,VALID,95.5659,VALID,0,VALID,22.9324,VALID,86,VALID,0.426172,
2010-03-27, 03:17:04,VALID,1009.2,VALID,0,VALID,95.5583,VALID,0.105969,VALID,22.9519,VALID,78,VALID,0.545313,
2010-03-27, 03:18:04,VALID,1009.21,VALID,0,VALID,95.5659,VALID,0,VALID,22.9536,VALID,71,VALID,0.302734,
2010-03-27, 03:19:04,VALID,1009.22,VALID,0,VALID,95.5431,VALID,0.105969,VALID,22.9324,VALID,71,VALID,0.583984,
2010-03-27, 03:20:04,VALID,1009.23,VALID,0,VALID,95.5278,VALID,0.105969,VALID,22.9129,VALID,71,VALID,0.161328,
2010-03-27, 03:21:04,VALID,1009.24,VALID,0,VALID,95.5202,VALID,0.105969,VALID,22.8917,VALID,71,VALID,0.377344,
2010-03-27, 03:22:04,VALID,1009.24,VALID,0,VALID,95.4973,VALID,0.105969,VALID,22.9147,VALID,71,VALID,0.441797,
2010-03-27, 03:23:04,VALID,1009.27,VALID,0,VALID,95.4668,VALID,0,VALID,22.9147,VALID,71,VALID,0.292578,
2010-03-27, 03:24:04,VALID,1009.27,VALID,0,VALID,95.4516,VALID,0,VALID,22.8952,VALID,71,VALID,0.221484,
2010-03-27, 03:25:04,VALID,1009.25,VALID,0,VALID,95.4821,VALID,0,VALID,22.8757,VALID,71,VALID,0.467969,
2010-03-27, 03:26:04,VALID,1009.26,VALID,0,VALID,95.4897,VALID,0.105969,VALID,22.8545,VALID,71,VALID,0.0652344,
2010-03-27, 03:27:04,VALID,1009.24,VALID,0,VALID,95.4821,VALID,0,VALID,22.835,VALID,71,VALID,0.345313,
2010-03-27, 03:28:04,VALID,1009.26,VALID,0,VALID,95.4897,VALID,0,VALID,22.8155,VALID,8,VALID,0.591797,
2010-03-27, 03:29:04,VALID,1009.23,VALID,0,VALID,95.5202,VALID,0,VALID,22.8155,VALID,1,VALID,0.425391,
2010-03-27, 03:30:04,VALID,1009.25,VALID,0,VALID,95.5126,VALID,0,VALID,22.7961,VALID,1,VALID,0.164453,
2010-03-27, 03:31:04,VALID,1009.2,VALID,0,VALID,95.5507,VALID,0.105969,VALID,22.7978,VALID,17,VALID,0.251172,
2010-03-27, 03:32:04,VALID,1009.19,VALID,0,VALID,95.5431,VALID,0.105969,VALID,22.7376,VALID,17,VALID,0.065625,
2010-03-27, 03:33:04,VALID,1009.18,VALID,0,VALID,95.5354,VALID,0,VALID,22.7394,VALID,18,VALID,0.317578,
2010-03-27, 03:34:04,VALID,1009.17,VALID,0,VALID,95.5354,VALID,0,VALID,22.7394,VALID,19,VALID,0.0105469,
2010-03-27, 03:35:04,VALID,1009.15,VALID,0,VALID,95.5431,VALID,0,VALID,22.7199,VALID,35,VALID,0.396094,
2010-03-27, 03:36:04,VALID,1009.12,VALID,0,VALID,95.5354,VALID,0,VALID,22.7199,VALID,31,VALID,0.226953,
2010-03-27, 03:37:04,VALID,1009.12,VALID,0,VALID,95.5659,VALID,0,VALID,22.7004,VALID,31,VALID,0.0191406,
2010-03-27, 03:38:04,VALID,1009.12,VALID,0,VALID,95.5659,VALID,0,VALID,22.6792,VALID,31,VALID,0,
2010-03-27, 03:39:04,VALID,1009.11,VALID,0,VALID,95.5583,VALID,0.105969,VALID,22.6792,VALID,32,VALID,0,
2010-03-27, 03:40:04,VALID,1009.11,VALID,0,VALID,95.5964,VALID,0,VALID,22.6597,VALID,31,VALID,0,
2010-03-27, 03:41:04,VALID,1009.12,VALID,0,VALID,95.4973,VALID,0,VALID,22.6809,VALID,31,VALID,0,